Satellite-Ground Cal/Val Site Overpasses Predictions

Prediction of Satellite NPP Overpassing Cal/Val Site: Antarctic Dome C

Ground Cal/Val Site Location: Latitude: -75.10, Longitude: 123.35; Satellite-Ground Site NADIR distance within 100 km.

Table of predicted overpasses for the next 14.0 days since TLE Epoch: 3/16/2012
Interval Starting Time Ending Time Minimum Distance Time Minimum Distance (km)
1 03/17/2012 07:30:47 03/17/2012 07:31:17 03/17/2012 07:31:02 3.87
2 03/20/2012 14:54:14 03/20/2012 14:54:43 03/20/2012 14:54:28 21.25
3 03/21/2012 14:35:31 03/21/2012 14:35:46 03/21/2012 14:35:39 85.91
4 03/22/2012 07:37:04 03/22/2012 07:37:31 03/22/2012 07:37:18 40.11
5 03/23/2012 07:18:18 03/23/2012 07:18:39 03/23/2012 07:18:28 69.86
6 03/25/2012 15:00:34 03/25/2012 15:00:57 03/25/2012 15:00:45 58.59
7 03/26/2012 14:41:43 03/26/2012 14:42:08 03/26/2012 14:41:55 50.68
8 03/27/2012 07:43:25 03/27/2012 07:43:44 03/27/2012 07:43:34 75.48
9 03/28/2012 07:24:31 03/28/2012 07:24:58 03/28/2012 07:24:44 32.36
